When you browse on this site, cookies collect data to enhance your experience and personalize the content and advertising you see.
Visit our Privacy Policy to learn more. By continuing to use the site, you agree to this use of cookies and data.

Hourly Weather Passo Fundo

Today, 9 August, Sunday

Time Temperature Precipitation Wind Pressure Humidity
00:00 +12°C° 0 mm 3 mps 710 mmHg 66%
01:00 +12°C° 0 mm 3 mps 710 mmHg 67%
02:00 +11°C° 0 mm 3 mps 710 mmHg 67%
03:00 +11°C° 0 mm 3 mps 710 mmHg 67%
04:00 +10°C° 0 mm 3 mps 710 mmHg 69%
05:00 +10°C° 0 mm 3 mps 709 mmHg 71%
06:00 +10°C° 0 mm 3 mps 709 mmHg 72%
07:00 +11°C° 0 mm 3 mps 710 mmHg 74%
08:00 +12°C° 0 mm 3 mps 710 mmHg 75%
09:00 +14°C° 0 mm 3 mps 710 mmHg 76%
10:00 +17°C° 0 mm 3 mps 710 mmHg 73%
11:00 +19°C° 0 mm 3 mps 710 mmHg 70%
12:00 +21°C° 0 mm 3 mps 710 mmHg 67%
13:00 +22°C° 0 mm 3 mps 710 mmHg 65%
14:00 +24°C° 0 mm 3 mps 709 mmHg 63%
15:00 +24°C° 0 mm 3 mps 709 mmHg 61%
16:00 +21°C° 0 mm 2 mps 708 mmHg 66%
17:00 +20°C° 0 mm 2 mps 707 mmHg 70%
18:00 +19°C° 0 mm 1 mps 707 mmHg 75%
19:00 +17°C° 0 mm 2 mps 707 mmHg 77%
20:00 +16°C° 0 mm 2 mps 707 mmHg 78%
21:00 +15°C° 0 mm 2 mps 707 mmHg 79%
22:00 +15°C° 0 mm 2 mps 707 mmHg 79%
23:00 +13°C° 0 mm 3 mps 706 mmHg 79%

Tomorrow, 10 August, Monday

Time Temperature Precipitation Wind Pressure Humidity
00:00 +13°C° 0 mm 3 mps 706 mmHg 79%
01:00 +13°C° 0 mm 3 mps 706 mmHg 79%
02:00 +13°C° 0 mm 3 mps 706 mmHg 79%
03:00 +12°C° 0 mm 3 mps 705 mmHg 79%
04:00 +12°C° 0 mm 3 mps 705 mmHg 79%
05:00 +12°C° 0 mm 3 mps 705 mmHg 79%
06:00 +12°C° 0 mm 3 mps 704 mmHg 79%
07:00 +13°C° 0 mm 4 mps 705 mmHg 77%
08:00 +14°C° 0 mm 4 mps 705 mmHg 75%
09:00 +17°C° 0 mm 4 mps 706 mmHg 74%
10:00 +19°C° 0 mm 4 mps 706 mmHg 70%
11:00 +21°C° 0 mm 5 mps 706 mmHg 66%
12:00 +23°C° 0 mm 5 mps 706 mmHg 62%
13:00 +23°C° 0 mm 5 mps 705 mmHg 63%
14:00 +25°C° 0 mm 5 mps 704 mmHg 64%
15:00 +25°C° 0 mm 5 mps 704 mmHg 65%
16:00 +22°C° 0 mm 4 mps 703 mmHg 70%
17:00 +21°C° 0 mm 4 mps 703 mmHg 75%
18:00 +19°C° 0 mm 3 mps 702 mmHg 81%
19:00 +19°C° 0 mm 3 mps 703 mmHg 78%
20:00 +18°C° 0 mm 3 mps 703 mmHg 76%
21:00 +17°C° 0 mm 3 mps 704 mmHg 74%
22:00 +17°C° 0 mm 3 mps 704 mmHg 74%
23:00 +17°C° 0 mm 3 mps 704 mmHg 74%

Day after tomorrow, 11 August, Tuesday

Time Temperature Precipitation Wind Pressure Humidity
00:00 +16°C° 0 mm 3 mps 704 mmHg 74%
01:00 +16°C° 0 mm 3 mps 703 mmHg 74%
02:00 +16°C° 0 mm 3 mps 703 mmHg 74%
03:00 +15°C° 0 mm 4 mps 703 mmHg 74%
04:00 +15°C° 0 mm 4 mps 704 mmHg 74%
05:00 +16°C° 0 mm 3 mps 704 mmHg 74%
06:00 +16°C° 0 mm 3 mps 704 mmHg 75%
07:00 +16°C° 0 mm 3 mps 705 mmHg 77%
08:00 +16°C° 0 mm 3 mps 706 mmHg 80%
09:00 +17°C° 0 mm 2 mps 706 mmHg 83%
10:00 +17°C° 0 mm 3 mps 706 mmHg 83%
11:00 +18°C° 0 mm 3 mps 706 mmHg 84%
12:00 +18°C° 0 mm 3 mps 706 mmHg 84%
13:00 +18°C° 0 mm 4 mps 706 mmHg 83%
14:00 +18°C° 0 mm 4 mps 705 mmHg 82%
15:00 +18°C° 0 mm 4 mps 705 mmHg 82%
16:00 +17°C° 0 mm 4 mps 705 mmHg 84%
17:00 +14°C° 0 mm 4 mps 704 mmHg 87%
18:00 +13°C° 0 mm 4 mps 704 mmHg 89%
19:00 +12°C° 0 mm 4 mps 704 mmHg 89%
20:00 +11°C° 0 mm 4 mps 705 mmHg 89%
21:00 +11°C° 0 mm 3 mps 705 mmHg 89%
22:00 +10°C° 0.3 mm 4 mps 705 mmHg 90%
23:00 +10°C° 0.3 mm 4 mps 705 mmHg 92%

12 August, Wednesday

Time Temperature Precipitation Wind Pressure Humidity
00:00 +8°C° 0.3 mm 5 mps 704 mmHg 94%
01:00 +8°C° 0.2 mm 4 mps 704 mmHg 94%
02:00 +10°C° 0.2 mm 4 mps 703 mmHg 95%
03:00 +10°C° 0.2 mm 4 mps 703 mmHg 95%
04:00 +10°C° 0.8 mm 4 mps 702 mmHg 96%
05:00 +10°C° 0.8 mm 4 mps 702 mmHg 96%
06:00 +11°C° 0.8 mm 4 mps 702 mmHg 96%
07:00 +11°C° 1 mm 4 mps 702 mmHg 96%
08:00 +12°C° 1 mm 4 mps 703 mmHg 96%
09:00 +12°C° 1 mm 4 mps 703 mmHg 95%
10:00 +13°C° 0.6 mm 4 mps 703 mmHg 94%
11:00 +14°C° 0.6 mm 4 mps 703 mmHg 93%
12:00 +15°C° 0.6 mm 4 mps 703 mmHg 92%
13:00 +16°C° 0.2 mm 3 mps 702 mmHg 92%
14:00 +16°C° 0.2 mm 3 mps 702 mmHg 93%
15:00 +16°C° 0.2 mm 2 mps 701 mmHg 93%
16:00 +16°C° 2 mm 3 mps 701 mmHg 94%
17:00 +16°C° 2 mm 3 mps 701 mmHg 95%
18:00 +15°C° 2 mm 4 mps 701 mmHg 96%
19:00 +16°C° 1.8 mm 3 mps 701 mmHg 97%
20:00 +16°C° 1.8 mm 3 mps 701 mmHg 97%
21:00 +15°C° 1.8 mm 2 mps 702 mmHg 97%
22:00 +15°C° 0.6 mm 2 mps 702 mmHg 98%
23:00 +15°C° 0.6 mm 1 mps 701 mmHg 98%

13 August, Thursday

Time Temperature Precipitation Wind Pressure Humidity
00:00 +15°C° 0.6 mm 1 mps 701 mmHg 98%
01:00 +15°C° 0.3 mm 1 mps 701 mmHg 98%
02:00 +15°C° 0.3 mm 1 mps 701 mmHg 98%
03:00 +15°C° 0.3 mm 1 mps 700 mmHg 98%
04:00 +15°C° 0 mm 1 mps 700 mmHg 98%
05:00 +15°C° 0 mm 1 mps 701 mmHg 98%
06:00 +15°C° 0 mm 1 mps 701 mmHg 98%
07:00 +15°C° 0 mm 1 mps 701 mmHg 97%
08:00 +16°C° 0 mm 1 mps 702 mmHg 97%
09:00 +16°C° 0 mm 1 mps 702 mmHg 96%
10:00 +18°C° 0.1 mm 1 mps 702 mmHg 94%
11:00 +18°C° 0.1 mm 1 mps 702 mmHg 92%
12:00 +19°C° 0.1 mm 1 mps 701 mmHg 89%
13:00 +20°C° 0.1 mm 1 mps 701 mmHg 87%
14:00 +20°C° 0.1 mm 2 mps 701 mmHg 85%
15:00 +20°C° 0.1 mm 2 mps 700 mmHg 83%
16:00 +19°C° 0.2 mm 2 mps 700 mmHg 86%
17:00 +18°C° 0.2 mm 2 mps 700 mmHg 90%
18:00 +19°C° 0.2 mm 1 mps 700 mmHg 94%
19:00 +17°C° 0.1 mm 2 mps 701 mmHg 95%
20:00 +16°C° 0.1 mm 2 mps 701 mmHg 96%
21:00 +15°C° 0.1 mm 2 mps 701 mmHg 98%
22:00 +15°C° 0 mm 2 mps 701 mmHg 98%
23:00 +14°C° 0 mm 2 mps 701 mmHg 98%

14 August, Friday

Time Temperature Precipitation Wind Pressure Humidity
00:00 +14°C° 0 mm 2 mps 701 mmHg 98%
01:00 +14°C° 0 mm 2 mps 701 mmHg 98%
02:00 +14°C° 0 mm 1 mps 701 mmHg 98%
03:00 +15°C° 0 mm 1 mps 701 mmHg 98%
04:00 +14°C° 0 mm 1 mps 701 mmHg 98%
05:00 +14°C° 0 mm 2 mps 701 mmHg 98%
06:00 +14°C° 0 mm 2 mps 701 mmHg 98%
07:00 +15°C° 0 mm 2 mps 701 mmHg 96%
08:00 +16°C° 0 mm 3 mps 701 mmHg 95%
09:00 +17°C° 0 mm 3 mps 702 mmHg 93%
10:00 +19°C° 0 mm 3 mps 702 mmHg 88%
11:00 +21°C° 0 mm 3 mps 702 mmHg 83%
12:00 +22°C° 0 mm 3 mps 702 mmHg 78%
13:00 +24°C° 0 mm 3 mps 701 mmHg 76%
14:00 +23°C° 0 mm 4 mps 701 mmHg 75%
15:00 +25°C° 0 mm 4 mps 701 mmHg 74%
16:00 +23°C° 0.3 mm 4 mps 700 mmHg 80%
17:00 +21°C° 0.3 mm 3 mps 700 mmHg 86%
18:00 +20°C° 0.3 mm 2 mps 700 mmHg 92%
19:00 +20°C° 0.6 mm 1 mps 701 mmHg 93%
20:00 +19°C° 0.6 mm 1 mps 701 mmHg 95%
21:00 +18°C° 0.6 mm 1 mps 701 mmHg 96%
22:00 +18°C° 1.3 mm 1 mps 702 mmHg 97%
23:00 +18°C° 1.3 mm 1 mps 702 mmHg 97%
Show more